Location: Claremont
(33.9858°S, 18.4575°E)
Time: 19:21:31
(UTC+00:00)

deb Transit VC - Pass Details

Date: 01 October 2021
Orbit: 840 x 910 km, 90.5° (Epoch: 27 October)

Event Time Altitude Azimuth Distance (km) Brightness Sun altitude
Rises 03:37:06 0° 164° (SSE) 3,428 ? -10.3°
Reaches altitude 10° 03:39:49 10° 153° (SSE) 2,489 ? -9.7°
Maximum altitude 03:44:39 30° 93° (E) 1,496 ? -8.7°
Drops below altitude 10° 03:49:28 10° 33° (NNE) 2,487 ? -7.7°
Sets 03:52:09 0° 22° (NNE) 3,425 ? -7.2°
